Flag for Colombia Weather past 2 weeks in Cúcuta, Colombia

Now
75 °F

Passing clouds.


Feels Like: 75 °F
Forecast: 66 / 91 °F
Wind: N/A

Location: San Antonio Del Tachira Airport

Current Time: Dec 18, 2014 at 4:40:10 AM

Latest Report: Dec 18, 2014 at 4:00 AM


Visibility: N/A

Pressure: 29.95 "Hg

Humidity: 83%

Dew point: 70 °F

Location of CúcutaLocation

Historic Weather in Cúcuta — Graph

°F

Cúcuta temperature yesterday

Maximum temperature yesterday: 91 °F (at 2:00 PM)
Minimum temperature yesterday: 72 °F (at 7:00 AM)
Average temperature yesterday: 83 °F

Past Weeks' High & Low Weather Summary

 TemperatureHumidityPressure
High95 °F (Dec 4, 12:00 PM)100% (Dec 3, 1:00 AM)30.04 "Hg (Dec 3, 1:00 AM)
Low72 °F (Dec 3, 6:00 AM)34% (Dec 10, 11:00 AM)29.74 "Hg (Dec 3, 3:00 PM)
Average82 °F70%29.91 "Hg
* Reported Dec 3 1:00 AM — Dec 18 1:00 AM, Cúcuta, Weather by CustomWeather, © 2014

Note: Actual official high and low records may vary slightly from our data, if they occured in-between our weather recording intervals... More about our weather records

Advertising

Cúcuta weather history for previous 24 hours

 ConditionsComfort  
Time TempWeatherWind HumidityBarometerVisibility
1:00 AM
Dec 18
77 °FPassing clouds.N/A89%29.98 "HgN/A
10:00 PM
Dec 17
79 °FPassing clouds.N/A84%30.01 "HgN/A
9:00 PM81 °FPassing clouds.N/A79%29.98 "HgN/A
8:00 PM81 °FPassing clouds.N/A79%29.98 "HgN/A
7:00 PM81 °FPassing clouds.N/A74%29.92 "HgN/A
6:00 PM82 °FPassing clouds.N/A62%29.92 "HgN/A
5:00 PM86 °FScattered clouds.N/A59%29.89 "HgN/A
4:00 PM88 °FScattered clouds.N/A55%29.89 "HgN/A
3:00 PM91 °FScattered clouds.N/A46%29.92 "HgN/A
2:00 PM91 °FScattered clouds.N/A46%29.92 "HgN/A
1:00 PM90 °FPartly sunny.N/A49%29.92 "HgN/A
12:00 PM88 °FPartly sunny.N/A52%29.95 "HgN/A
11:00 AM88 °FScattered clouds.N/A49%29.98 "HgN/A
10:00 AM84 °FScattered clouds.N/A55%30.01 "HgN/A
9:00 AM81 °FScattered clouds.N/A100%30.04 "HgN/A
8:00 AM77 °FBroken clouds.N/A69%30.01 "HgN/A
7:00 AM72 °FScattered clouds.N/A94%30.01 "HgN/A
6:00 AM73 °FScattered clouds.N/A89%30.01 "HgN/A
Weather by CustomWeather, © 2014

See weather overviewHow to use our weather pages